Location: Andrest
(43.3200°N, 0.0641°E)
Time: 15:04:34
(UTC+00:00)

Cosmos 962 Rocket - Pass Details

Date: 01 December 2020
Orbit: 950 x 1000 km, 82.9° (Epoch: 22 January)

Event Time Altitude Azimuth Distance (km) Brightness Sun altitude
Rises 16:46:00 0° 354° (N) 3,699 7.3 -4.2°
Reaches altitude 10° 16:48:34 10° 357° (N) 2,740 6.6 -4.6°
Maximum altitude 16:54:49 70° 80° (E) 1,032 4.5 -5.6°
Drops below altitude 10° 17:00:58 10° 164° (SSE) 2,687 6.9 -6.7°
Sets 17:03:27 0° 167° (SSE) 3,623 7.6 -7.1°
